334  
ASUS43 KJKL 241510  
RWRJKL  
 
EAST KENTUCKY HOURLY WEATHER ROUNDUP  
NATIONAL WEATHER SERVICE JACKSON KY  
1000 AM EST MON FEB 24 2020  
 
NOTE: "FAIR" INDICATES FEW OR NO CLOUDS BELOW 12,000 FEET WITH  
NO SIGNIFICANT WEATHER AND/OR S TO VISIBILITY
.  
 
* THESE REPORTS ARE NOT UNDER NWS QUALITY CONTROL AND MAY NOT  
REPORT WEATHER SUCH AS PRECIPITATION AND FOG.
 
 
KYZ079-080-083-085-087-088-110-112-115-119-120-241600   
..EASTERN KENTUCKY
 
 
 
CITY SKY/WX TMP DP RH WIND PRES REMARKS
 
JACKSON CLOUDY 42 37 82 S3 30.05F  
LONDON CLOUDY 41 39 93 VRB5 30.03F  
SOMERSET* CLOUDY 41 37 87 SW8 30.04F  
MONTICELLO* LGT RAIN 43 40 89 E8 30.03F  
WILLIAMSBURG* FAIR 41 41 100 SE6 30.03F  
MIDDLESBORO* CLOUDY 42 39 89 S6 30.07F  
HARLAN APT* CLOUDY 39 37 90 CALM 30.06S  
PIKE CO APT* CLOUDY 39 37 92 CALM 30.04F  
BIG SANDY APT* CLOUDY 42 37 81 S5 30.05F  
MOREHEAD APT* LGT RAIN 41 37 87 S6G12 30.05F  
ASHLAND* CLOUDY 46 35 65 SW7 30.05S  

 
 
KYZ035-036-041-042-044-050-067-078-099-241600   
..CENTRAL KENTUCKY
 
 
 
CITY SKY/WX TMP DP RH WIND PRES REMARKS
 
MT STERLING* RAIN 41 37 87 S7 30.05F  
FLEMING/MASON* DRIZZLE 41 39 95 SW10 30.04F  
DANVILLE* LGT RAIN 41 39 93 SE6 30.01F  
RICHMOND* CLOUDY 41 37 87 S7 30.02F  
LEXINGTON LGT RAIN 41 38 89 SE9 30.00F  
FRANKFORT LGT RAIN 43 40 89 SE9 29.98F  
LOUISVILLE LGT RAIN 46 42 86 SE10 29.96F  
LEBANON* PTSUNNY 43 43 100 SE12 29.99F  
GLASGOW* CLOUDY 42 42 100 SE7 29.95F  
BOWLING GREEN LGT RAIN 46 40 79 S14 29.94F  

 
 
KYZ091>093-OHZ055-061-077-WVZ005-015-034-035-042-241600   
..SOUTHERN OHIO/WEST VIRGINIA
 
 
 
CITY SKY/WX TMP DP RH WIND PRES REMARKS
 
COVINGTON LGT RAIN 41 39 93 S10 29.98F FOG  
COLUMBUS CLOUDY 44 32 62 SW8 30.01R  
DAYTON LGT RAIN 41 36 82 SW7 29.99F  
WILMINGTON CLOUDY 42 35 76 SW9 29.99F  
HUNTINGTON CLOUDY 47 33 58 S10 30.04S  
CHARLESTON CLOUDY 42 27 55 CALM 30.04F  
PINEVILLE* MIX PCPN 40 36 86 MISG 30.12F  
BECKLEY CLOUDY 41 27 57 SW13 30.04S  
BLUEFIELD FLURRIES 34 33 96 CALM 30.05F  
LOGAN CO APT* CLOUDY 43 30 61 S7G13 30.04F  

 
 
VAZ002-007-008-TNZ017-027-036-066-071-241600   
..SOUTHWEST VIRGINIA/EAST TENNESSEE
 
 
 
CITY SKY/WX TMP DP RH WIND PRES REMARKS
 
WISE* CLOUDY 34 34 100 SE6 30.04F WCI 29  
JONESVILLE* N/A 39 39 100 CALM 30.09S  
ABINGDON* CLOUDY 35 33 90 NE3 30.09F  
BRISTOL CLOUDY 39 35 86 E3 30.08F  
MORRISTOWN* CLOUDY 41 39 93 E5 30.05F  
SEVIERVILLE* CLOUDY 43 39 87 CALM 30.06F  
KNOXVILLE CLOUDY 44 39 82 CALM 30.06F  
LAFOLLETTE* CLOUDY 41 39 93 VRB5 30.08F  
OAK RIDGE CLOUDY 44 37 76 CALM 30.08F  
CROSSVILLE LGT RAIN 39 36 89 S10G20 30.01F WCI 32  
NASHVILLE LGT RAIN 45 41 86 S7 29.96S FOG  

 
   
..KEY TO REMARKS
 
 
VSB - VISIBILITY IN MILES  
WCI - WIND CHILL INDEX  
HX - HEAT INDEX  
 

 
 
 
CLICK HERE TO GO TO PREVIOUS BULLETINS.

The Nexlab KY Page Main Text Page